Terminal Aerodrome Forecast
Issued by NWS Dodge City, KS

Home | Current Version | Previous Version | Text Only | Print | Product List | Glossary On
Versions: 1 2 3 4 5 6 7 8 9 10 11 12 13 14 15 16 17 18 19 20 21 22 23 24 25 26 27 28 29 30 31 32 33 34 35 36 37 38
000
FTUS43 KDDC 202327
TAFDDC
TAF
KDDC 202327Z 2100/2124 08007KT P6SM SKC
     FM210600 12006KT P6SM SKC
     FM211000 15006KT P6SM SKC
     FM211400 18010KT P6SM SKC
     FM211800 18017G25KT P6SM FEW250=

USA.gov is the U.S. government's official web portal to all federal, state and local government web resources and services.